Regional Weather Roundup
Issued by NWS Cleveland, OH

Home | Current Version | Previous Version | Graphics & Text | Print | Product List | Glossary On
Versions: 1 2 3 4 5 6 7 8 9 10 11 12 13 14 15 16 17 18 19 20 21 22 23 24 25 26 27 28 29 30 31 32 33 34 35 36 37 38 39 40 41 42 43 44 45 46 47 48 49 50
000
ASUS41 KCLE 120110
RWRCLE
OHIO REGIONAL WEATHER ROUNDUP
NATIONAL WEATHER SERVICE WILMINGTON, OH
800 PM EST MON DEC 11 2017

NOTE: "FAIR" INDICATES FEW OR NO CLOUDS BELOW 12,000 FEET WITH NO
SIGNIFICANT WEATHER AND/OR OBSTRUCTIONS TO VISIBILITY.

OHZ001>008-015>018-024>027-034-035-043-044-120200-
   NORTHWEST OHIO

CITY           SKY/WX    TMP DP  RH WIND       PRES   REMARKS
DEFIANCE       FAIR      31  24  75 CALM      29.69F
FINDLAY        FAIR      33  24  69 SE6       29.69F WCI  28
TOLEDO EXPRESS CLOUDY    32  27  81 NE3       29.71F
TOLEDO EXEC    MOCLDY    32  24  72 SE3       29.72F
LIMA           FAIR      34  27  75 SE13      29.67F WCI  25
$$

OHZ009>014-019>023-028>033-038-089-120200-
   NORTHEAST OHIO

CITY           SKY/WX    TMP DP  RH WIND       PRES   REMARKS
CLE-HOPKINS    CLOUDY    32  25  75 S8        29.77F WCI  25
CLE-LAKEFRONT  FLURRIES  32  24  72 SE12      29.74F WCI  23
CUY CO. ARPT   CLOUDY    32  25  74 S12       29.75F WCI  23
LORAIN-ELYRIA  MOCLDY    32  20  61 S10       29.74F WCI  24
ASHTABULA      CLOUDY    29  26  89 SE6       29.77F WCI  23
AKRON-CANTON   CLOUDY    33  21  61 SE8       29.74F WCI  26
WOOSTER        MOCLDY    31  23  72 S5        29.75F WCI  26
MANSFIELD      FAIR      32  23  69 SE12      29.71F WCI  23
YOUNGSTOWN     CLOUDY    30  25  81 SE7       29.75F WCI  23
$$

OHZ042-051>053-060>062-070>072-077>081-120200-
  SOUTHWEST OHIO

CITY           SKY/WX    TMP DP  RH WIND       PRES   REMARKS
CINC-COVINGTON FAIR      43  30  60 S13       29.68F
CINC-LUNKEN    FAIR      34  28  79 CALM      29.71F
HAMILTON       FAIR      35  28  75 E3        29.69F
DAYTON         MOCLDY    34  29  82 SE10      29.68F WCI  26
WRIGHT-PAT AFB FAIR      36  28  71 SE3       29.68F
DAYTON GENERAL FAIR      39  28  64 SE8       29.67F
WILMINGTON     FAIR      35  29  78 SE6       29.70F
$$

OHZ036-037-039>041-045>050-054>059-063>069-073>076-082>088-120200-
  CENTRAL AND SOUTHEAST OHIO

CITY           SKY/WX    TMP DP  RH WIND       PRES   REMARKS
COLUMBUS       CLOUDY    37  26  64 SE7       29.73F
OSU AIRPORT    FAIR      36  27  69 SE8       29.72F
BOLTON FIELD   NOT AVBL
RICKENBACK AFB FAIR      33  27  77 E3        29.73F
NEWARK         FAIR      31  24  75 CALM      29.73F
MARION         NOT AVBL
LANCASTER      FAIR      32  27  81 S3        29.74F
ZANESVILLE     FAIR      32  23  69 SE6       29.76F WCI  26
NEW PHILLY     FAIR      34  23  64 CALM      29.78F
$$



USA.gov is the U.S. government's official web portal to all federal, state and local government web resources and services.